[[{"header":{"parameterUnit":"m.s-1","parameterCategory":1,"la1":30.2991,"la2":30.254,"lo1":-89.0895,"lo2":-89.0444,"dy":0.0017,"dx":0.0017,"nx":28,"ny":28,"refTime":"2023-10-18T09:00:00:Z","depth":0,"parameterNumber":2,"parameterNumberName":"U-component_of_WINDS"},"data":[0,0,0,0,0,0,0,0,0,0,0,0,0,0,0,0,0,0,0,0,0,0,0,0,0,0,0,0,0,0,0,0,0,0,0,0,0,0,0,0,0,0,0,0,0,0,0,0,0,0,0,0,0,0,0,0,0,0,-1.763,-1.763,0,-1.763,-1.763,-1.763,-1.7592,-1.7591,-1.759,-1.7589,-1.7589,-1.759,-1.759,0,0,0,0,0,0,0,0,0,0,0,0,0,-1.7598,-1.7598,-1.763,-1.763,-1.763,-1.763,-1.763,-1.763,-1.7592,-1.759,-1.7589,-1.7588,-1.7588,-1.7589,-1.7591,0,0,0,0,0,0,0,0,0,0,0,0,0,-1.7606,-1.7599,-1.763,-1.7611,-1.7609,-1.763,-1.763,-1.763,-1.7592,-1.759,-1.7589,-1.7588,-1.7588,-1.7589,-1.7591,-1.763,0,0,-1.7595,-1.7596,0,0,0,0,0,0,0,0,-1.7606,-1.7607,-1.7614,-1.7612,-1.761,-1.7609,-1.7619,-1.763,-1.7592,-1.7599,-1.7589,-1.7587,-1.7597,-1.7597,-1.7601,-1.763,-1.763,-1.7595,-1.7596,-1.7597,-1.7597,0,0,0,0,0,0,0,-1.7605,-1.7607,-1.763,-1.7614,-1.7612,-1.7603,-1.7602,-1.7621,-1.7606,-1.7598,-1.7595,-1.7596,-1.7595,-1.7599,-1.76,-1.763,-1.7595,-1.7596,-1.7597,-1.7598,-1.7692,-1.7693,0,0,0,0,0,0,-1.7607,-1.7607,-1.763,-1.763,-1.7604,-1.7604,-1.7604,-1.7611,-1.7606,-1.7604,-1.7597,-1.7594,-1.7598,-1.7599,-1.76,-1.7645,-1.7597,-1.7598,-1.7599,-1.769,-1.7692,-1.7694,0,0,0,0,0,0,-1.7607,-1.761,-1.763,-1.7618,-1.762,-1.7607,-1.7615,-1.7612,-1.7616,-1.7605,-1.7602,-1.7603,-1.7597,-1.7598,-1.7623,-1.7645,-1.7599,-1.76,-1.7688,-1.7691,-1.7693,-1.7736,0,0,0,0,0,0,-1.7606,-1.761,-1.7624,-1.7618,-1.762,-1.7652,-1.7616,-1.7613,-1.7618,-1.7614,-1.761,-1.7608,-1.7595,-1.7621,-1.7624,-1.7646,-1.7601,-1.7686,-1.7689,-1.7692,-1.7732,-1.7739,-1.7746,0,0,0,0,0,-1.7605,-1.7636,-1.7625,-1.7628,-1.7638,-1.7654,-1.7655,-1.7639,-1.762,-1.7635,-1.7628,-1.7608,-1.7642,-1.7624,-1.7627,-1.7649,-1.7685,-1.7688,-1.7692,-1.7729,-1.7738,-1.7745,0,0,0,0,0,0,-1.7644,-1.7635,-1.7622,-1.7652,-1.7654,-1.7647,-1.7664,-1.7649,-1.7656,-1.7652,-1.7633,-1.7632,-1.766,-1.7657,-1.7637,-1.7687,-1.766,-1.7665,-1.7687,-1.7696,-1.7702,-1.7701,-1.7602,0,0,0,0,0,-1.7656,-1.7669,-1.7661,-1.7688,-1.769,-1.7677,-1.7684,-1.7672,-1.7673,-1.7673,-1.7668,-1.767,-1.7681,-1.7689,-1.7698,-1.7733,-1.7731,-1.775,-1.7757,-1.7762,-1.7766,-1.7784,-1.7792,-1.7706,-1.7706,-1.7706,0,0,-1.7681,-1.7678,-1.7687,-1.7696,-1.7696,-1.771,-1.7678,-1.7694,-1.7705,-1.7676,-1.7698,-1.7695,-1.7696,-1.7726,-1.7739,-1.7725,-1.779,-1.7767,-1.7771,-1.7772,-1.7788,-1.7796,-1.7804,-1.7709,-1.7708,-1.7708,0,0,-1.7733,-1.7733,-1.7755,-1.7756,-1.7757,-1.7749,-1.7755,-1.775,-1.7747,-1.777,-1.7748,-1.7761,-1.778,-1.7782,-1.7785,-1.7841,-1.7823,-1.7845,-1.7878,-1.7896,-1.7903,-1.7909,-1.7928,-1.7935,-1.7849,-1.7849,-1.7849,0,-1.7764,-1.7784,-1.7769,-1.7787,-1.7791,-1.7767,-1.779,-1.7792,-1.7795,-1.7799,-1.7784,-1.7808,-1.7807,-1.7837,-1.7851,-1.7855,-1.786,-1.7844,-1.7903,-1.7909,-1.7914,-1.7932,-1.7939,-1.7851,-1.7851,-1.7851,-1.7851,0,-1.7822,-1.7837,-1.7855,-1.786,-1.7867,-1.7887,-1.7875,-1.7884,-1.7873,-1.7867,-1.789,-1.7889,-1.7897,-1.7904,-1.7893,-1.7933,-1.7924,-1.7907,-1.7878,-1.7925,-1.7941,-1.7948,-1.7855,-1.7854,-1.7853,-1.7853,0,0,-1.7896,-1.7893,-1.79,-1.7902,-1.7902,-1.7913,-1.7934,-1.7942,-1.795,-1.7955,-1.7971,-1.7989,-1.7973,-1.7977,-1.7966,-1.7982,-1.8025,-1.7962,-1.7962,-1.7973,-1.8068,-1.808,-1.8088,-1.8015,-1.8016,-1.8017,-1.8068,0,-1.7946,-1.7979,-1.7967,-1.8001,-1.8014,-1.7992,-1.801,-1.8012,-1.8007,-1.8018,-1.8014,-1.8026,-1.8005,-1.8007,-1.8022,-1.8017,-1.8044,-1.8013,-1.8028,-1.8029,-1.8027,-1.8097,-1.8109,-1.8157,-1.8074,-1.8075,-1.8076,0,-1.8007,-1.8015,-1.805,-1.8049,-1.8054,-1.807,-1.8077,-1.8088,-1.8091,-1.8087,-1.8092,-1.8078,-1.8098,-1.8072,-1.8099,-1.8078,-1.8084,-1.8083,-1.8085,-1.8084,-1.8054,-1.8096,-1.8172,-1.8179,-1.8086,-1.8085,-1.8085,0,-1.8056,-1.8075,-1.8099,-1.8101,-1.8101,-1.8112,-1.8112,-1.8114,-1.812,-1.8127,-1.8131,-1.8141,-1.8146,-1.8154,-1.8143,-1.8125,-1.8172,-1.8145,-1.8168,-1.8168,-1.8176,-1.8176,-1.8253,-1.8184,-1.8184,-1.8184,-1.8184,0,-1.8112,-1.8134,-1.8121,-1.8135,-1.816,-1.8146,-1.8171,-1.8169,-1.8171,-1.8185,-1.8167,-1.818,-1.8166,-1.8179,-1.8171,-1.8194,-1.8197,-1.8194,-1.8191,-1.8194,-1.8194,-1.8196,-1.8192,-1.8186,-1.8185,-1.8185,-1.8185,0,-1.8169,-1.8161,-1.8186,-1.8184,-1.8184,-1.8202,-1.82,-1.8213,-1.8209,-1.8226,-1.823,-1.8222,-1.8236,-1.8227,-1.824,-1.8235,-1.8265,-1.8259,-1.8264,-1.8262,-1.8285,-1.8282,-1.8364,-1.8374,-1.8301,-1.8301,-1.8302,0,-1.8204,-1.8221,-1.8221,-1.8229,-1.8231,-1.8244,-1.8251,-1.8239,-1.8247,-1.8252,-1.8265,-1.8277,-1.8286,-1.8309,-1.8305,-1.8316,-1.8308,-1.8336,-1.8309,-1.8312,-1.8307,-1.8305,-1.8307,-1.8341,-1.8342,-1.8342,-1.8343,0,-1.8266,-1.8262,-1.8273,-1.8282,-1.8291,-1.8298,-1.8304,-1.8312,-1.83,-1.831,-1.8324,-1.8331,-1.8346,-1.8358,-1.8367,-1.8368,-1.8353,-1.8352,-1.8358,-1.836,-1.8362,-1.836,-1.8277,-1.835,-1.8349,-1.8348,-1.8348,-1.8348,-1.8312,-1.8326,-1.8329,-1.8341,-1.8345,-1.8351,-1.8363,-1.8361,-1.8372,-1.8383,-1.8376,-1.8393,-1.8396,-1.8407,-1.841,-1.8422,-1.8411,-1.8419,-1.8421,-1.8423,-1.8426,-1.8362,-1.8424,-1.8424,-1.8424,-1.8424,-1.8424,0,-1.8373,-1.8374,-1.8386,-1.8394,-1.8405,-1.8392,-1.8398,-1.8407,-1.8422,-1.8426,-1.8436,-1.8452,-1.8465,-1.8462,-1.8474,-1.8484,-1.8478,-1.8488,-1.8486,-1.8486,-1.8436,-1.8429,-1.8493,-1.8493,-1.8492,-1.8492,-1.8492,-1.8492,-1.8405,-1.8428,-1.8424,-1.8449,-1.845,-1.8466,-1.847,-1.8476,-1.848,-1.8499,-1.8509,-1.8508,-1.851,-1.8521,-1.8532,-1.8531,-1.8535,-1.8547,-1.8544,-1.8496,-1.8489,-1.8483,-1.8476,-1.8549,-1.8549,-1.8592,-1.8593,-1.8593]},{"header":{"parameterUnit":"m.s-1","parameterCategory":1,"la1":30.2991,"la2":30.254,"lo1":-89.0895,"lo2":-89.0444,"dy":0.0017,"dx":0.0017,"nx":28,"ny":28,"refTime":"2023-10-18T09:00:00:Z","depth":0,"parameterNumber":3,"parameterNumberName":"V-component_of_WINDS"},"data":[0,0,0,0,0,0,0,0,0,0,0,0,0,0,0,0,0,0,0,0,0,0,0,0,0,0,0,0,0,0,0,0,0,0,0,0,0,0,0,0,0,0,0,0,0,0,0,0,0,0,0,0,0,0,0,0,0,0,2.9991,2.9991,0,2.9994,2.9994,2.9994,3.0048,3.0049,3.0051,3.0052,3.005,3.0049,3.0047,0,0,0,0,0,0,0,0,0,0,0,0,0,3.0028,3.0027,2.9991,2.9991,2.9991,2.9994,2.9994,2.9994,3.0048,3.0049,3.0051,3.0053,3.005,3.0049,3.0047,0,0,0,0,0,0,0,0,0,0,0,0,0,3.0019,3.0026,2.9991,3.0018,3.0021,2.9994,2.9994,2.9994,3.0047,3.0049,3.0051,3.0053,3.0051,3.0049,3.0047,2.9993,0,0,3.0041,3.004,0,0,0,0,0,0,0,0,3.0019,3.0018,3.0014,3.0016,3.0019,3.0023,3.0006,2.9993,3.0047,3.0037,3.0052,3.0054,3.0039,3.0038,3.0034,2.9993,2.9993,3.0041,3.0039,3.0038,3.0038,0,0,0,0,0,0,0,3.002,3.0018,2.9992,3.0014,3.0017,3.0029,3.003,3.0004,3.0026,3.0038,3.0042,3.0042,3.0041,3.0036,3.0034,2.9993,3.0041,3.0039,3.0038,3.0037,2.9909,2.9906,0,0,0,0,0,0,3.0017,3.0018,2.9992,2.9992,3.0025,3.0027,3.0028,3.0019,3.0026,3.003,3.004,3.0044,3.0038,3.0036,3.0034,2.9972,3.0038,3.0037,3.0035,2.9911,2.9908,2.9906,0,0,0,0,0,0,3.0018,3.0015,2.9992,3.0006,3.0004,3.0024,3.0014,3.0018,3.0014,3.0028,3.0032,3.0031,3.004,3.0037,3.0003,2.9973,3.0036,3.0034,2.9913,2.991,2.9907,2.9847,0,0,0,0,0,0,3.0019,3.0015,2.9995,3.0005,3.0003,2.9962,3.0012,3.0017,3.0011,3.0016,3.0021,3.0024,3.0041,3.0006,3.0001,2.9971,3.0032,2.9916,2.9912,2.9908,2.9852,2.9842,2.9834,0,0,0,0,0,3.002,2.9976,2.9994,2.999,2.9979,2.996,2.9958,2.9981,3.0008,2.9988,2.9998,3.0023,2.9977,3.0002,2.9997,2.9966,2.9918,2.9913,2.9908,2.9856,2.9844,2.9834,0,0,0,0,0,0,2.996,2.9978,2.9997,2.9956,2.9956,2.9969,2.9944,2.9968,2.9958,2.9964,2.9991,2.9991,2.9953,2.9956,2.9984,2.9915,2.9952,2.9946,2.9914,2.9903,2.9895,2.9894,3.0031,0,0,0,0,0,2.9942,2.9926,2.9943,2.9905,2.9904,2.9924,2.9916,2.9934,2.9934,2.9934,2.9941,2.9939,2.9925,2.9914,2.9901,2.9853,2.9855,2.9829,2.982,2.9813,2.9807,2.9783,2.9772,2.9889,2.989,2.989,0,0,2.9904,2.9913,2.9901,2.9893,2.9895,2.9877,2.9924,2.9902,2.9889,2.993,2.99,2.9905,2.9904,2.9864,2.9846,2.9865,2.9775,2.9807,2.9801,2.9799,2.9777,2.9766,2.9756,2.9886,2.9887,2.9887,0,0,2.9827,2.9832,2.9802,2.9803,2.9807,2.9821,2.9813,2.9823,2.9829,2.9799,2.983,2.9814,2.9788,2.9787,2.9783,2.9707,2.973,2.9702,2.9655,2.9631,2.9622,2.9613,2.9587,2.9577,2.9696,2.9696,2.9696,0,2.978,2.9755,2.9782,2.976,2.9755,2.9795,2.9764,2.9764,2.9762,2.9757,2.9779,2.9749,2.9751,2.9711,2.9693,2.9688,2.968,2.9701,2.9621,2.9613,2.9606,2.9581,2.9571,2.9692,2.9693,2.9693,2.9693,0,2.9697,2.968,2.9654,2.9654,2.9647,2.962,2.9643,2.9632,2.965,2.9662,2.9631,2.9636,2.9625,2.9617,2.9634,2.958,2.9592,2.9617,2.9655,2.9591,2.9568,2.9559,2.9687,2.9689,2.969,2.9691,0,0,2.9581,2.9598,2.9588,2.9589,2.9597,2.9583,2.9558,2.955,2.954,2.9538,2.9517,2.9495,2.9519,2.9515,2.9532,2.9511,2.9452,2.9539,2.9539,2.9523,2.9393,2.9374,2.9363,2.9468,2.9466,2.9464,2.9393,0,2.9507,2.9467,2.9491,2.9447,2.9432,2.9469,2.9447,2.9449,2.9459,2.9447,2.9457,2.9442,2.9474,2.9472,2.9453,2.9463,2.9426,2.9468,2.9448,2.9447,2.9447,2.9351,2.9331,2.9263,2.9384,2.9383,2.9382,0,2.9415,2.9412,2.9366,2.9379,2.9373,2.9353,2.9348,2.9336,2.9338,2.9347,2.9343,2.9366,2.9342,2.938,2.9346,2.9375,2.9368,2.9372,2.937,2.9369,2.9411,2.9347,2.9242,2.9232,2.9368,2.9369,2.937,0,2.9336,2.932,2.9291,2.929,2.9303,2.9289,2.9293,2.9298,2.9292,2.9287,2.9284,2.9275,2.927,2.9263,2.9283,2.9308,2.9247,2.9286,2.9253,2.9253,2.9238,2.9239,2.9131,2.9233,2.9233,2.9234,2.9234,0,2.9251,2.9222,2.9256,2.9238,2.9207,2.9235,2.9202,2.9211,2.9215,2.9199,2.923,2.9214,2.9241,2.9228,2.9243,2.9213,2.921,2.9217,2.9221,2.9214,2.9213,2.921,2.9215,2.9231,2.9232,2.9232,2.9233,0,2.9157,2.9179,2.915,2.9166,2.9169,2.9145,2.9158,2.9142,2.9155,2.9134,2.9131,2.9151,2.9137,2.9156,2.9143,2.9153,2.9113,2.9124,2.9113,2.9116,2.9082,2.9085,2.8968,2.8955,2.9065,2.9064,2.9063,0,2.9102,2.9081,2.9095,2.9088,2.9091,2.9078,2.9073,2.91,2.9093,2.9095,2.9078,2.9068,2.906,2.9036,2.9048,2.9039,2.905,2.901,2.9049,2.9043,2.905,2.9052,2.905,2.9002,2.9,2.8999,2.8998,0,2.9002,2.9014,2.9006,2.9002,2.8996,2.8993,2.8993,2.8984,2.9013,2.9003,2.899,2.8985,2.8973,2.8962,2.8956,2.8959,2.8983,2.8986,2.8978,2.8971,2.8966,2.8969,2.9092,2.8989,2.899,2.899,2.8991,2.8991,2.8926,2.891,2.8918,2.8908,2.8912,2.8911,2.8897,2.8909,2.89,2.8894,2.8909,2.8893,2.8897,2.8892,2.8893,2.888,2.8897,2.8885,2.8882,2.8879,2.8874,2.8968,2.8879,2.8879,2.8879,2.8879,2.888,0,2.8829,2.8836,2.8827,2.8827,2.8819,2.8845,2.8846,2.8838,2.8823,2.8826,2.8819,2.8804,2.8794,2.8806,2.8798,2.8785,2.8796,2.8782,2.8783,2.8784,2.8859,2.8867,2.8773,2.8773,2.8773,2.8773,2.8773,2.8773,2.8777,2.8751,2.8764,2.874,2.8747,2.8733,2.8732,2.8731,2.8734,2.8717,2.8709,2.8718,2.8724,2.8717,2.8709,2.8712,2.8708,2.869,2.8698,2.8768,2.8778,2.8788,2.8796,2.8689,2.8689,2.8624,2.8623,2.8623]}]]